Wind_Gust
32 39 43 45 45 44 41 42 39 37 31 33 33 34 40 40 35 36 37 32 40 40 42 41 34 35 38 38 36 29 31 32 32 32 31 29 28 29 27 27 27 25 25 23 25 25 23 22 22 21 21 21 21 20 21 22 22 23 25 23 23 23 23 21 22 24 24 23 22 20 20 20 18 18 16 15 14 14 12 13 13 13 13 13 12 12
39 40 41 40 37 36 38 37 36 38 38 35 35 36 39 42 39 36 40 32 39 39 35 38 38 36 35 38 38 29 31 34 33 33 32 31 30 30 30 29 29 24 22 23 24 22 21 23 22 22 22 20 24 22 22 23 23 23 22 23 24 23 23 21 21 22 21 21 21 21 21 18 18 18 18 17 15 13 12 11 11 13 15 19 17 14
41 46 41 39 36 35 35 37 36 39 41 31 33 34 37 44 37 31 39 33 36 39 34 36 41 39 35 35 37 34 33 33 33 32 31 32 31 30 31 30 27 25 26 26 26 23 26 24 23 24 21 22 23 22 24 22 22 23 22 24 24 23 23 22 21 22 21 18 17 18 18 18 18 13 12 14 16 17 12 13 16 17 13 12 12 14
39 42 39 36 37 38 38 40 38 39 42 41 38 36 40 38 44 40 39 33 34 42 33 31 37 36 34 34 36 36 34 30 26 28 27 29 32 33 33 32 29 25 29 30 29 28 26 25 24 23 23 22 22 23 23 23 25 25 22 22 24 24 22 22 21 19 19 17 15 15 17 16 15 16 15 15 14 13 12 15 15 16 15 15 12 12
38 29 35 36 38 41 41 40 40 42 42 39 36 37 37 39 44 34 37 36 30 31 28 28 33 36 36 37 40 36 33 28 28 28 29 30 28 30 28 30 31 30 28 30 29 28 26 25 26 24 22 22 23 23 24 25 24 21 22 23 23 24 23 21 19 19 19 19 17 17 16 16 17 18 17 17 16 14 14 15 12 12 14 14 14 14
38 33 31 38 39 40 42 44 44 40 43 44 38 34 30 34 35 34 30 37 36 35 36 32 37 40 33 37 40 36 40 36 32 32 32 31 30 31 32 30 29 28 28 29 28 30 28 26 23 23 22 21 23 23 22 23 22 19 23 25 23 22 22 22 22 23 21 20 19 21 21 21 20 19 19 18 19 17 15 15 14 14 14 13 11 12
35 33 32 38 37 38 42 42 41 40 43 40 44 36 31 29 34 38 32 38 37 39 36 35 37 32 31 38 38 39 37 36 33 34 34 33 32 31 30 31 32 31 30 26 26 26 27 24 24 24 23 22 22 20 19 20 19 20 22 24 24 24 23 23 22 23 21 22 23 22 22 21 21 20 17 16 16 17 16 15 16 15 13 13 12 12
34 34 28 33 37 40 40 45 45 45 44 44 30 33 30 30 33 38 35 36 30 24 24 35 40 31 33 38 36 37 37 37 36 35 36 36 33 31 31 32 31 33 30 31 27 27 26 25 25 25 23 23 22 19 19 19 21 23 17 22 22 24 23 22 23 23 24 24 24 22 20 20 19 17 18 17 18 17 17 18 18 16 15 12 11 11
32 32 29 34 35 41 44 38 35 44 52 39 30 33 28 26 29 34 35 34 30 28 32 38 36 39 33 30 36 39 41 41 40 37 37 36 35 32 32 33 32 32 31 28 28 27 27 26 25 24 24 21 21 19 19 21 23 25 25 28 30 28 23 24 26 25 22 21 24 22 20 19 17 17 19 19 19 19 19 20 19 17 14 12 11 13
34 29 31 30 35 37 33 37 35 42 48 34 28 32 30 25 26 34 35 29 30 31 32 34 40 44 34 24 39 40 42 42 42 38 36 36 35 34 35 32 31 28 27 28 26 27 26 26 24 22 22 21 21 18 23 28 29 28 31 32 27 26 22 21 22 24 23 22 23 22 21 20 19 20 19 18 20 20 19 18 17 15 14 12 13 13
26 24 25 33 38 32 34 35 36 39 39 31 30 35 35 30 28 32 31 30 30 35 36 30 37 38 36 33 32 43 49 39 36 37 37 37 36 34 32 31 33 31 29 28 27 26 26 25 25 23 23 21 20 25 27 28 28 33 33 30 27 26 24 23 26 25 24 22 22 23 21 20 21 20 21 23 23 22 16 18 16 15 14 12 14 13
22 28 33 35 29 32 31 39 36 37 40 39 40 38 38 33 26 27 29 28 36 40 33 32 36 38 40 32 32 32 31 37 38 38 38 38 38 37 33 34 33 30 29 28 27 27 26 27 25 24 22 21 25 25 27 32 28 30 30 30 27 25 25 26 26 25 25 26 23 21 20 21 21 21 21 25 27 24 20 19 18 15 14 13 13 12
27 31 27 28 27 28 32 32 37 39 44 43 33 37 43 43 37 36 35 38 43 42 31 34 33 38 46 25 25 32 33 35 36 38 41 39 38 36 35 33 32 31 28 29 28 28 28 28 27 25 23 24 24 27 29 30 28 29 28 27 28 27 28 27 26 26 25 24 23 22 20 18 20 20 20 23 25 24 21 18 17 17 15 14 14 14
25 25 31 31 28 30 29 39 42 45 47 43 41 43 45 48 41 35 41 39 34 29 25 35 33 40 25 37 28 27 33 34 35 35 36 38 37 37 36 33 32 31 30 29 27 27 28 28 26 27 26 26 26 27 28 29 29 28 29 29 28 26 26 24 25 25 25 22 21 20 20 19 19 18 22 25 25 21 19 18 17 13 13 15 15 16
27 32 36 35 36 31 35 34 33 36 44 48 36 43 38 40 55 43 46 42 36 33 30 29 42 42 31 29 33 20 28 29 33 35 33 35 36 34 34 34 32 30 26 29 27 28 28 29 27 27 27 27 28 30 28 26 29 28 28 26 27 25 26 25 25 23 24 22 21 20 20 21 21 25 23 21 19 21 20 18 17 15 13 15 16 16
29 31 31 33 22 33 32 31 32 36 38 40 39 34 37 37 26 31 25 28 31 30 30 36 38 26 26 15 30 25 23 25 30 32 32 35 34 34 32 34 32 32 31 29 27 27 27 27 27 27 27 28 29 32 29 28 29 29 27 26 27 28 26 26 24 22 21 21 20 21 22 20 21 20 20 21 20 18 18 15 15 16 15 15 16 17
30 28 31 35 27 32 30 32 34 38 51 45 40 45 38 26 26 21 16 18 16 23 28 21 31 31 21 15 18 29 25 26 28 32 34 34 35 34 32 32 32 32 31 28 28 28 28 26 27 27 28 30 31 30 30 28 29 30 28 28 29 30 26 25 24 25 25 24 25 22 21 22 23 24 24 25 22 21 17 16 14 15 17 17 16 18
30 27 32 36 32 33 30 29 29 36 35 41 44 39 31 27 24 28 27 22 27 33 24 31 31 25 30 32 25 27 27 26 29 32 34 32 34 35 33 31 32 31 28 28 28 28 30 29 29 27 29 30 31 31 29 29 27 30 28 30 29 28 30 30 29 27 25 25 24 23 24 25 24 22 23 24 24 18 16 15 16 17 17 17 17 17
22 31 37 32 30 31 30 30 31 33 36 36 34 26 43 33 31 36 25 29 30 32 26 29 30 27 30 24 30 29 30 28 28 31 34 34 35 35 33 33 31 32 29 28 27 29 30 30 32 29 29 31 31 28 29 30 31 30 28 30 29 30 31 30 28 25 27 26 25 26 26 25 25 23 24 25 22 18 18 18 17 18 18 18 18 19
22 27 33 32 32 33 32 34 38 41 39 34 29 32 31 24 27 36 30 24 30 23 20 27 31 33 29 21 29 28 30 29 29 30 33 34 33 33 32 34 33 31 31 28 28 29 30 30 31 32 33 32 32 31 29 31 30 29 31 30 30 30 28 26 27 26 26 26 24 25 25 24 25 25 27 25 22 18 20 20 19 19 19 18 18 19
21 17 32 37 30 34 39 41 36 40 42 42 43 37 37 32 23 23 28 30 32 26 22 24 29 32 26 20 28 28 30 29 29 30 29 30 31 31 29 31 32 30 30 29 29 29 30 30 30 31 30 32 32 31 29 31 30 29 29 30 32 31 29 28 27 28 26 25 25 26 26 25 25 25 26 22 20 19 18 18 18 19 19 21 18 19
17 20 26 39 37 35 32 32 29 36 36 38 42 37 36 33 35 33 29 30 36 33 25 23 26 23 24 22 24 25 30 29 30 29 29 28 30 29 29 30 32 33 29 28 28 28 30 30 30 31 32 33 33 32 31 30 28 28 30 32 32 30 30 27 28 26 26 24 26 26 26 26 24 26 26 23 22 19 19 18 18 18 19 19 20 19
19 16 27 33 36 32 29 30 29 32 34 34 37 38 34 30 27 30 29 27 29 35 23 20 16 19 23 22 23 24 26 28 29 29 29 29 29 29 30 31 31 31 30 28 28 30 30 30 31 35 35 35 33 31 30 28 29 30 30 31 29 29 27 27 27 26 26 26 26 26 26 26 26 26 26 23 22 20 20 19 18 19 20 21 21 19
8 18 30 31 27 27 24 29 28 30 33 34 35 31 36 37 28 25 23 25 23 25 30 26 20 22 24 22 18 20 23 24 28 27 28 28 27 30 28 27 30 29 27 27 28 28 30 30 30 33 32 34 32 30 29 30 31 30 32 31 30 28 28 26 25 27 26 26 26 26 26 26 26 26 25 23 21 21 20 21 19 20 21 21 21 22
22 14 23 30 32 32 25 28 30 30 40 43 39 35 32 34 27 26 17 25 23 21 24 23 27 25 17 13 18 21 20 25 28 29 28 29 26 28 29 28 28 28 28 28 29 29 30 30 32 35 33 32 32 31 29 32 30 30 30 29 30 30 30 28 27 26 27 26 27 27 27 26 27 25 23 22 22 22 21 20 20 19 21 21 21 21
15 12 26 30 32 33 35 40 45 43 45 45 35 32 31 34 34 32 20 26 23 22 22 23 24 22 21 17 16 22 21 21 22 27 27 27 26 28 27 29 30 28 29 29 29 30 31 32 32 32 30 31 30 31 29 31 31 31 30 29 26 28 28 27 27 27 27 28 29 29 27 28 26 24 23 22 21 22 22 21 19 20 19 21 22 21
16 16 23 26 32 32 30 31 27 29 37 46 37 35 34 33 34 28 19 21 24 21 23 20 22 22 21 20 22 20 21 22 22 22 24 25 25 26 26 28 29 27 29 30 29 30 30 29 31 32 31 31 30 29 32 31 32 30 29 27 25 26 27 27 27 28 28 29 28 29 27 27 28 26 22 21 21 21 21 20 18 20 20 21 21 22
15 21 24 25 24 24 27 27 30 34 37 37 37 36 33 31 32 32 23 23 20 26 25 21 16 18 20 23 21 21 19 21 21 23 24 25 25 26 27 26 21 27 27 28 29 31 32 32 30 32 30 29 31 31 29 31 30 29 30 29 28 28 27 27 28 28 28 29 28 28 29 27 27 26 21 21 21 22 21 20 18 18 19 20 21 21
17 16 19 21 22 21 25 26 30 32 29 33 36 36 33 29 31 34 26 21 21 22 22 18 15 16 17 14 11 14 18 20 22 22 22 23 26 25 27 28 29 29 30 31 31 31 32 32 32 32 31 30 30 30 30 30 29 27 27 27 29 28 29 27 28 28 29 29 29 28 28 27 27 24 21 21 21 21 21 20 18 19 19 20 20 19
14 15 16 19 21 21 21 26 30 33 31 33 32 33 31 30 32 32 29 25 21 18 15 13 13 17 18 16 11 13 11 14 21 20 21 23 26 27 28 29 29 30 31 31 31 31 31 31 31 31 30 29 32 33 30 30 30 29 28 26 27 28 27 29 27 28 28 29 29 29 28 30 27 25 23 23 22 22 22 19 19 19 20 20 20 20
17 13 14 19 22 22 19 22 28 31 30 33 31 32 32 31 31 31 28 27 22 20 15 13 12 15 17 13 13 13 11 14 18 20 23 23 25 27 28 29 28 29 30 30 30 31 30 31 31 31 30 30 31 33 31 30 29 27 27 26 29 28 28 30 30 28 28 28 29 30 30 29 28 25 24 22 21 21 21 20 19 20 20 20 20 20
15 12 13 17 19 24 24 21 26 27 28 27 31 33 35 33 32 35 37 28 23 22 18 13 16 18 17 13 15 12 12 15 19 20 21 23 25 26 27 28 28 29 30 31 30 30 31 32 32 32 32 30 31 30 30 30 29 27 27 28 29 29 29 27 28 28 28 29 30 30 30 28 27 24 23 22 22 22 21 20 21 21 21 21 20 20
16 17 14 17 20 21 27 22 25 26 27 32 32 35 33 28 28 30 31 26 26 18 17 14 16 17 14 12 13 14 12 13 16 19 21 22 24 26 26 26 27 28 29 30 30 29 30 31 31 31 30 29 32 31 30 31 31 29 29 29 29 30 28 27 28 28 29 29 30 31 29 25 24 23 23 22 22 21 21 22 22 22 23 22 20 19
18 19 17 20 18 24 26 24 25 29 30 35 27 27 28 31 30 30 34 31 23 18 21 13 15 11 10 12 12 14 12 14 14 16 17 20 23 23 23 25 26 26 27 29 29 29 30 30 29 30 30 28 28 29 30 29 27 27 27 28 29 28 28 28 28 28 29 29 30 29 28 26 24 23 22 22 22 22 23 23 23 22 22 22 21 21
17 13 18 19 19 26 26 23 27 24 28 15 25 28 28 26 27 31 30 28 23 22 22 20 15 12 12 11 13 10 10 10 12 14 17 19 19 20 22 23 24 25 27 29 29 29 29 29 28 29 29 28 28 28 29 29 27 26 27 28 29 29 29 29 28 27 26 27 27 27 27 26 25 24 23 22 22 23 23 24 23 23 23 24 22 22
15 15 15 18 20 26 27 27 29 23 18 13 17 24 23 23 25 27 30 26 24 22 20 21 17 13 11 11 11 11 10 11 13 13 16 17 18 21 22 23 24 26 28 28 29 29 31 30 30 30 29 29 31 31 30 30 27 28 27 27 28 29 28 27 25 23 21 22 23 25 26 26 25 23 23 24 24 25 25 24 24 25 23 23 22 21
20 20 19 17 24 29 26 24 19 19 18 16 18 25 33 31 28 29 23 23 19 18 13 13 13 12 10 10 12 12 12 12 15 18 16 18 17 18 21 24 25 25 25 27 28 28 28 29 29 29 29 28 29 30 29 31 28 26 27 26 27 29 27 25 24 25 25 24 24 23 24 25 26 25 24 24 25 26 26 25 26 24 23 23 23 23
22 24 21 21 22 21 26 24 21 19 17 17 16 19 20 15 16 18 16 19 14 14 14 14 12 11 10 11 13 14 14 17 19 21 18 18 18 20 21 24 26 26 25 26 26 27 28 29 29 29 31 28 28 27 27 27 27 26 29 27 26 28 26 26 25 25 26 26 28 28 27 25 27 25 24 24 26 27 25 25 24 24 24 25 24 24
20 24 21 17 20 24 22 22 22 20 16 17 17 18 17 17 13 11 17 21 20 17 14 15 15 14 14 14 15 14 17 15 17 19 21 19 18 19 23 24 26 26 26 27 28 29 28 29 28 29 30 29 29 28 27 29 29 29 30 27 27 26 25 27 25 25 25 25 25 25 24 26 27 27 26 25 26 26 25 26 25 23 23 23 23 23
20 20 18 19 18 23 20 24 22 13 16 13 15 16 19 17 13 17 24 23 16 14 13 13 15 17 16 16 17 18 16 14 18 23 21 19 18 20 24 25 25 27 27 28 28 28 29 29 30 28 28 29 30 28 29 29 29 26 28 27 28 29 25 25 26 23 21 21 23 24 23 22 22 22 23 25 24 25 24 24 24 23 22 21 21 22
20 21 20 23 23 24 16 21 21 21 18 14 14 15 19 16 18 22 21 19 13 13 12 13 16 17 18 18 15 14 16 15 15 19 22 22 21 21 22 24 25 26 27 28 29 22 28 28 28 29 29 29 30 29 28 29 28 27 27 28 28 30 24 20 20 21 22 23 22 22 22 21 22 23 21 23 23 22 22 22 22 22 22 19 18 18
15 12 18 18 21 21 16 20 21 21 16 15 12 14 20 23 21 19 18 10 11 14 13 14 18 17 17 16 17 18 16 16 19 20 24 23 22 22 24 26 26 26 25 25 24 25 27 28 26 27 27 27 31 29 28 27 26 26 28 27 26 27 23 22 20 23 22 23 21 19 21 22 21 21 20 19 21 22 22 20 20 22 24 23 20 22
18 11 16 15 13 15 14 21 23 20 10 13 15 19 14 13 17 17 16 15 13 17 17 16 18 17 17 18 18 17 18 21 21 22 23 22 22 22 23 25 27 27 29 30 28 25 27 27 28 29 25 28 29 28 28 27 26 26 27 28 25 25 26 25 23 22 21 23 23 20 21 21 22 22 21 21 22 23 23 23 23 22 23 23 23 25
23 10 15 16 21 18 21 18 16 15 15 14 15 16 19 22 17 16 18 19 17 17 17 17 17 16 16 16 16 17 17 21 23 22 21 20 20 20 22 22 22 26 25 25 25 26 25 26 26 26 25 27 27 26 26 28 28 27 27 24 25 25 24 24 24 24 23 21 22 22 22 23 24 22 21 23 23 23 23 23 23 23 24 24 25 26
24 18 15 15 18 16 16 19 18 15 17 19 22 25 20 18 17 18 18 18 18 19 16 18 18 16 15 15 14 16 18 17 21 19 19 19 19 19 20 21 23 24 22 23 25 23 22 25 25 26 25 24 24 26 27 26 27 26 27 26 27 29 29 29 28 25 21 23 22 22 23 23 24 24 22 23 23 23 23 22 23 24 23 24 25 25
15 16 14 14 22 22 23 20 19 21 21 23 23 21 19 16 18 18 18 20 20 19 18 19 16 16 15 12 15 15 18 17 17 17 18 18 17 18 17 19 21 20 20 21 24 23 23 26 26 26 26 23 23 23 23 25 25 26 26 26 27 27 26 27 28 25 23 22 21 23 23 23 22 23 24 24 23 22 23 23 24 23 24 25 24 25
13 20 18 17 17 17 22 16 19 22 20 20 22 21 20 18 20 19 20 21 19 19 20 18 17 16 14 14 18 18 18 17 17 17 19 20 20 18 17 19 19 19 19 20 20 20 22 24 27 27 25 23 22 22 23 23 24 26 24 26 27 26 26 27 27 23 22 23 22 21 22 23 23 23 24 24 23 23 23 23 23 23 23 24 24 25
15 18 15 20 19 20 21 16 19 19 20 18 19 20 20 21 21 20 21 19 19 18 17 16 14 15 14 16 16 19 17 17 17 17 18 20 21 21 18 18 18 18 18 18 20 22 21 23 23 24 24 25 23 22 23 24 25 25 26 26 26 25 25 25 26 26 23 23 22 22 22 22 16 22 23 24 24 24 24 24 23 23 23 24 25 26
15 19 12 12 16 19 15 16 17 23 21 21 21 20 20 20 19 18 18 19 19 20 19 19 18 18 17 16 14 14 16 16 16 17 18 19 18 20 20 18 17 17 17 19 21 22 23 22 23 25 24 24 23 23 23 23 24 25 26 25 25 25 25 25 23 23 21 22 20 19 18 20 23 23 24 24 24 22 23 24 24 22 20 19 22 21
13 13 15 18 14 16 14 15 16 15 16 19 18 18 17 17 17 18 18 20 18 17 18 19 19 18 18 17 16 15 16 15 14 12 17 18 17 16 17 17 17 17 17 18 20 21 20 20 20 22 22 22 23 23 24 23 22 23 25 24 23 24 24 24 25 23 24 22 22 21 20 20 22 20 22 23 24 24 19 14 12 10 18 25 9 9
13 11 14 11 11 11 13 12 14 12 13 15 14 15 15 16 17 18 18 18 18 17 17 17 18 19 19 19 18 18 16 15 14 12 14 17 17 16 17 17 18 19 19 17 19 21 20 19 18 20 21 21 22 24 24 23 24 23 24 24 24 25 24 26 26 25 24 23 21 21 22 20 21 21 22 23 23 24 22 21 16 14 17 14 14 11
Wind_Speed
13 17 18 21 21 24 26 27 25 22 19 19 19 20 21 21 18 21 23 17 22 19 23 24 20 20 22 22 22 15 19 19 20 20 17 17 16 16 15 14 15 15 14 14 15 16 15 14 12 11 11 10 11 12 12 12 13 13 13 12 13 11 11 10 10 10 9 9 9 9 9 9 8 7 7 6 6 6 3 4 4 4 2 2 1 4
18 18 20 24 23 23 24 24 23 23 23 21 20 20 18 23 19 19 22 20 21 19 18 23 23 22 21 22 23 15 17 20 20 20 20 19 18 16 18 17 16 14 11 15 13 14 13 12 13 12 10 12 14 13 14 13 12 12 13 13 12 11 12 11 10 10 9 9 9 9 9 8 8 7 7 7 4 4 3 3 3 6 7 9 7 7
18 21 22 24 22 21 22 23 22 24 26 19 13 17 18 19 19 18 23 21 18 19 15 22 23 21 21 20 22 20 19 17 19 19 19 19 19 17 17 18 16 14 14 15 15 15 15 15 15 13 11 12 14 13 14 14 13 13 12 13 13 11 12 11 11 10 9 8 8 8 7 7 6 4 3 4 5 7 4 4 7 4 4 3 1 4
17 18 25 23 22 23 23 24 24 24 23 19 17 15 17 18 20 16 19 21 19 16 15 18 20 17 20 20 22 22 19 17 17 18 18 18 19 19 19 18 15 15 17 18 17 17 16 15 14 13 12 11 12 13 14 14 15 12 10 11 12 12 12 11 10 10 9 9 8 7 6 7 6 4 3 2 5 5 6 7 6 6 7 5 3 2
17 16 21 22 24 25 25 24 25 20 19 22 20 18 16 19 23 17 15 18 18 19 17 16 15 15 18 19 19 20 20 17 17 17 18 18 17 18 17 18 17 16 16 17 18 17 16 15 15 14 13 12 12 13 14 14 13 9 11 10 12 13 12 11 11 10 9 8 8 7 8 7 7 4 5 8 6 6 5 7 6 6 7 5 4 4
21 20 19 24 25 27 26 24 26 20 18 21 24 21 17 22 23 21 19 21 14 15 18 18 13 15 17 22 21 18 19 20 18 19 19 19 18 18 19 18 18 17 15 16 17 18 17 15 14 14 14 13 12 13 12 13 12 11 9 10 12 11 11 11 11 11 10 9 9 9 9 9 9 7 6 7 8 7 6 7 6 7 6 5 5 3
15 20 20 24 23 23 25 22 26 23 18 19 19 24 21 18 20 24 20 20 16 15 16 19 16 10 14 20 22 20 22 22 18 20 20 19 18 18 16 17 17 17 17 16 15 16 16 15 14 14 14 13 13 12 11 10 12 12 12 13 13 12 11 11 11 11 10 10 9 9 9 8 8 6 4 3 4 7 7 7 7 7 6 6 5 4
15 22 18 21 23 23 21 20 22 26 21 17 18 22 19 19 20 24 21 19 12 12 12 20 16 12 12 17 21 23 23 23 22 21 22 20 19 18 18 18 19 17 17 16 16 16 15 15 15 16 14 12 11 11 9 10 9 8 7 4 9 10 10 11 12 13 12 10 9 10 9 8 6 7 7 6 7 7 6 7 7 7 7 5 4 4
19 18 18 21 22 19 20 21 22 28 21 16 18 18 16 16 18 20 18 15 13 13 13 17 21 14 12 13 22 23 24 25 25 23 22 22 21 20 18 18 19 20 19 18 15 16 16 16 15 15 14 13 13 11 10 12 14 11 10 13 5 7 12 12 12 10 11 9 9 9 8 8 3 6 8 9 8 8 7 8 7 8 7 5 4 6
14 17 18 19 18 17 18 22 22 27 22 20 17 20 13 12 14 19 16 13 14 13 14 17 20 15 14 10 17 23 24 24 23 23 22 22 22 21 20 19 19 17 16 16 16 16 16 16 14 14 13 13 12 10 14 15 13 10 12 12 13 12 11 10 11 11 10 8 8 9 8 7 6 8 8 7 8 8 8 9 8 7 6 5 5 5
13 13 14 14 17 16 18 19 20 24 24 19 18 20 17 12 11 15 13 11 12 13 16 18 22 18 12 15 13 19 20 18 18 18 19 21 22 21 19 19 18 17 16 15 15 16 16 15 15 14 14 13 12 14 14 13 13 14 14 14 16 16 13 14 14 13 12 10 9 8 8 10 10 9 9 8 9 9 9 8 8 7 6 5 5 5
10 13 13 11 17 14 19 21 21 22 26 25 15 17 17 13 10 12 12 13 12 14 17 19 20 23 16 13 14 16 18 22 21 22 23 23 23 21 19 18 19 18 16 16 15 16 16 17 15 14 13 13 15 16 13 13 14 14 12 14 17 15 14 12 10 11 11 9 10 7 9 9 10 10 9 10 12 9 8 9 9 7 7 6 5 5
10 12 11 16 15 18 17 16 18 21 24 22 15 15 19 16 9 11 11 12 15 15 15 19 19 17 20 11 12 17 20 21 22 20 23 24 23 22 21 21 18 16 16 15 15 15 16 16 15 15 15 15 15 16 16 16 15 15 13 14 14 14 14 13 12 12 10 9 7 8 10 9 9 8 9 10 11 12 10 8 8 8 7 5 6 5
9 11 17 17 16 15 16 17 18 19 22 20 18 18 20 18 15 13 15 12 12 12 14 19 20 15 11 16 16 13 19 20 21 21 22 24 23 23 21 19 18 17 17 16 15 15 16 15 15 16 16 16 14 16 14 17 17 14 11 8 9 14 14 14 14 12 11 7 8 9 7 8 9 9 10 9 10 10 9 8 8 7 6 6 6 6
9 10 15 19 13 16 16 16 16 16 21 18 18 18 17 16 15 16 15 16 14 13 14 17 15 12 15 11 20 12 17 18 18 20 20 22 22 21 20 20 19 18 16 15 15 15 16 17 17 15 15 16 16 16 13 15 15 14 12 13 14 15 16 15 14 12 10 8 11 10 11 9 8 9 9 9 8 10 10 9 9 7 6 5 7 6
14 11 14 19 13 18 16 17 17 21 18 17 17 17 16 15 10 11 8 11 13 11 12 15 11 11 10 2 18 8 10 13 16 20 20 22 20 21 18 19 18 18 17 16 16 16 17 17 17 15 15 16 17 19 14 18 14 16 15 16 16 17 17 15 15 13 12 12 10 10 10 9 8 7 8 8 7 8 9 8 7 7 7 6 4 6
12 9 18 20 17 19 17 18 16 18 17 17 17 17 17 14 12 6 6 9 6 8 9 5 12 12 9 3 10 16 14 15 16 18 20 21 22 21 18 18 19 18 17 16 16 15 18 16 16 15 17 17 18 16 16 16 13 15 15 14 16 16 13 15 15 13 12 10 10 12 12 10 10 11 12 12 12 11 9 8 7 7 7 7 5 5
8 8 19 19 20 18 17 18 16 21 17 15 16 16 17 15 12 9 8 7 9 12 7 14 13 11 12 9 8 16 16 15 17 18 20 20 21 21 18 17 18 17 17 17 17 17 18 17 18 16 17 19 19 20 17 18 16 16 15 16 18 16 15 13 14 15 15 14 13 13 12 13 13 12 13 13 13 10 8 8 7 8 8 7 7 7
7 10 15 20 18 18 18 15 15 19 21 17 15 14 16 12 14 13 6 12 12 12 7 12 15 10 13 9 13 14 15 16 17 19 20 20 21 21 19 20 18 18 16 16 16 16 17 17 18 17 19 19 19 17 15 15 13 16 15 16 16 18 17 16 14 15 14 15 11 11 12 13 12 12 13 13 12 10 9 10 8 9 9 7 8 8
8 7 12 17 18 18 15 14 14 17 21 21 16 14 14 7 12 15 8 7 9 9 8 12 15 9 11 8 17 15 15 15 16 18 20 21 21 19 18 18 17 16 15 15 16 16 17 18 19 20 20 20 20 18 15 15 14 18 15 16 15 15 15 16 15 14 15 15 13 12 12 12 12 13 13 14 12 9 11 11 10 10 10 10 8 9
4 5 8 15 17 18 15 13 14 18 19 18 18 15 14 8 8 7 10 12 11 7 8 8 11 11 10 8 15 17 17 16 16 16 15 17 17 17 17 17 17 17 16 16 16 16 17 18 18 19 19 19 19 18 14 12 13 14 13 14 16 16 18 17 16 16 15 13 13 14 15 14 12 14 13 12 11 10 10 10 10 10 10 11 10 10
3 5 7 14 15 15 15 15 16 20 19 17 18 16 16 14 15 14 11 11 13 11 8 8 9 8 9 7 12 14 17 16 17 17 15 17 19 17 16 17 17 16 17 16 16 17 17 18 18 19 18 19 19 19 17 14 11 10 11 14 16 16 16 16 16 14 14 13 12 14 14 14 13 14 14 12 12 11 9 9 9 9 10 10 10 9
6 1 8 14 14 14 17 18 17 19 20 17 16 16 16 12 11 11 10 12 12 12 10 8 6 7 10 8 7 12 14 16 17 18 16 17 18 18 17 18 18 19 18 17 17 17 17 18 19 20 22 22 20 19 19 16 14 12 13 16 17 17 16 15 14 12 11 13 13 14 13 14 13 14 16 13 11 11 10 10 10 9 10 10 10 9
4 4 9 12 12 13 14 17 15 17 18 14 13 14 16 15 12 10 8 9 8 12 13 9 6 6 12 11 7 8 14 14 15 16 17 16 15 17 16 16 19 18 17 17 16 16 16 17 18 19 20 20 19 18 17 16 14 13 14 16 16 16 14 14 13 13 11 12 14 15 15 14 14 16 14 12 10 11 11 11 10 10 10 11 10 10
5 3 6 11 8 11 11 13 14 15 15 11 13 15 16 16 15 13 8 10 8 8 11 9 10 7 6 6 8 8 11 15 17 17 16 16 15 15 16 14 14 16 16 17 17 18 18 18 19 20 19 19 19 18 16 17 17 17 17 16 15 15 15 15 13 14 13 15 15 15 15 15 15 14 12 11 10 12 11 11 10 10 11 11 11 11
4 0 5 10 13 14 13 15 16 17 19 14 16 17 18 21 17 12 4 10 8 11 11 7 8 9 10 8 8 13 12 11 13 17 16 16 16 16 16 16 16 16 16 18 18 18 19 18 18 18 18 17 16 18 17 17 18 18 17 16 15 15 16 15 14 14 14 14 15 15 16 16 15 13 12 11 11 12 11 11 10 10 10 11 11 11
2 3 7 8 11 13 13 15 15 16 16 16 20 20 17 18 17 13 4 7 8 9 8 3 5 10 11 10 12 11 11 12 12 11 12 14 15 15 15 16 16 15 16 19 18 17 17 18 19 20 19 17 19 16 13 17 17 17 17 16 15 13 13 13 14 14 15 15 16 16 16 15 13 12 11 11 11 10 10 10 10 10 11 11 11 11
5 6 11 14 14 12 15 16 19 20 20 22 23 21 18 19 19 16 6 9 11 11 9 7 8 9 10 13 12 12 11 11 11 12 12 13 14 14 14 14 16 15 16 16 17 18 19 19 19 20 19 18 17 19 13 16 16 17 16 16 14 15 11 9 12 15 14 15 15 15 15 14 13 12 11 10 11 11 10 10 10 10 10 11 11 11
5 5 8 11 13 12 14 15 17 18 16 17 19 20 20 17 16 16 11 11 13 8 8 9 8 8 7 5 4 7 10 11 12 13 13 14 14 14 16 17 17 18 18 18 18 17 18 19 19 20 19 17 17 18 15 16 16 13 16 14 15 15 16 15 14 15 16 15 15 15 15 15 14 11 11 12 11 12 11 10 9 10 10 10 10 9
2 2 7 9 12 12 13 15 19 19 17 17 19 22 19 18 19 18 14 11 11 10 7 6 7 10 9 5 3 5 1 7 12 11 11 13 14 16 17 17 18 18 19 19 19 19 18 19 19 19 19 18 20 21 19 16 17 15 16 14 16 16 15 16 16 16 16 16 15 15 15 16 14 14 13 13 12 12 12 10 10 10 10 11 11 10
5 1 6 8 9 11 11 13 18 20 17 17 18 19 20 19 20 20 15 11 2 2 5 2 4 7 7 5 4 4 1 4 8 11 13 14 15 16 17 17 17 18 18 18 18 19 19 19 19 20 19 20 20 21 18 16 15 14 15 15 17 16 16 17 16 15 16 16 16 16 16 15 15 13 13 12 11 11 12 11 9 9 10 10 10 11
3 3 5 5 6 6 7 8 14 17 18 16 18 20 20 21 19 18 14 12 9 7 6 4 4 7 5 5 7 4 3 6 10 11 12 12 15 15 16 17 17 17 18 18 18 19 19 20 19 20 20 20 20 18 14 15 16 15 15 16 16 16 15 15 16 16 16 16 16 17 17 15 16 13 13 12 12 12 11 10 10 10 10 10 11 10
5 4 3 4 7 6 11 12 14 15 13 14 16 20 21 18 16 17 16 13 11 8 5 3 6 5 5 4 5 6 4 5 8 10 11 13 14 14 15 16 16 17 18 18 19 18 19 19 20 19 19 18 19 17 17 18 16 16 16 17 16 15 14 15 15 16 17 16 17 17 16 14 13 13 12 12 12 11 10 10 11 10 11 12 10 10
5 7 4 5 5 7 13 13 14 13 13 12 12 15 17 18 18 18 16 15 12 9 6 3 6 3 2 4 5 5 3 3 6 7 7 9 11 13 14 15 16 16 16 16 17 18 19 16 13 14 17 17 17 16 17 16 15 12 13 14 13 13 12 13 14 16 16 16 17 16 15 14 13 13 12 12 12 11 11 10 11 11 11 11 11 10
8 3 3 7 5 8 11 11 11 11 10 6 14 15 15 15 16 20 16 15 12 11 8 6 4 1 4 4 4 3 4 2 3 6 9 9 11 11 13 14 15 16 17 18 17 17 18 18 17 18 17 18 16 15 15 15 11 10 13 14 14 11 13 15 16 15 15 15 15 15 15 14 13 14 13 12 12 11 11 11 11 11 11 11 11 10
4 4 4 4 6 6 9 9 10 8 9 2 9 15 14 14 15 17 17 14 14 11 9 10 7 4 2 2 3 3 2 3 6 5 7 8 11 12 13 13 14 15 16 16 18 18 17 18 17 17 17 14 12 15 16 16 14 13 14 15 16 15 15 15 14 13 12 13 13 14 14 14 13 13 13 12 12 12 12 12 11 12 11 11 11 9
10 7 4 4 9 9 9 10 6 6 8 6 5 13 14 13 14 14 8 11 11 9 5 3 4 4 1 1 2 4 5 4 7 7 7 9 10 11 12 12 14 15 15 16 15 16 17 16 15 14 15 15 15 15 14 15 14 13 13 14 14 14 15 14 13 11 11 12 12 12 13 14 14 13 13 13 12 12 13 13 13 12 11 11 11 10
11 9 7 7 5 8 10 9 6 5 5 7 9 8 8 9 10 11 6 6 7 5 6 6 4 1 1 1 3 5 5 6 7 6 7 9 10 12 12 15 14 15 16 16 16 15 17 17 17 14 16 17 16 15 13 15 15 14 14 13 12 14 13 13 11 11 11 11 12 12 12 13 14 14 13 12 13 13 12 12 10 11 10 11 11 11
10 9 5 5 5 7 8 7 6 6 3 8 8 11 9 5 5 4 5 7 7 8 6 7 7 3 2 2 6 5 4 4 7 5 6 8 9 11 14 14 16 16 16 17 17 18 18 17 17 17 16 16 15 12 14 15 16 14 13 12 12 13 13 14 13 12 11 11 11 11 12 12 13 14 14 13 13 13 13 12 11 10 10 10 10 9
8 7 5 7 7 8 6 8 7 2 3 6 8 8 9 9 6 6 9 6 7 5 5 6 6 4 4 4 6 7 3 2 8 10 9 9 9 12 13 14 15 16 16 16 17 17 18 19 18 17 16 16 15 15 16 16 16 15 13 13 12 11 12 13 14 12 11 11 11 11 11 11 11 11 12 12 12 12 10 9 10 12 11 10 9 9
6 4 7 8 7 9 9 6 6 5 6 6 4 7 10 9 7 6 7 6 1 5 4 6 6 5 5 6 5 3 2 5 6 11 12 11 12 12 13 13 15 16 17 17 16 16 16 16 16 16 17 16 17 16 16 15 15 15 14 13 12 12 11 10 10 11 12 12 12 12 11 10 10 11 11 10 11 10 8 9 10 11 11 7 5 7
5 3 7 6 8 8 5 6 5 4 3 3 4 7 11 10 7 6 5 3 4 6 6 6 8 7 7 6 7 5 5 7 9 10 12 12 12 12 14 15 15 14 15 16 15 15 15 15 15 16 15 15 16 16 16 15 14 14 13 13 13 13 12 12 9 8 8 8 11 10 11 10 10 10 9 9 11 12 11 9 7 6 8 9 9 10
4 3 5 3 1 4 4 7 7 6 2 3 8 8 3 4 2 4 4 4 2 6 7 8 7 8 8 8 9 8 10 11 12 12 13 13 12 13 14 15 16 16 17 18 17 15 14 15 16 15 15 15 16 15 15 16 15 14 13 13 14 13 12 12 12 11 10 7 7 8 10 10 11 10 8 9 12 12 11 9 9 8 9 9 10 10
11 2 2 4 6 1 7 3 3 3 4 1 6 5 6 8 6 5 3 6 5 5 7 7 7 7 8 8 8 9 9 13 13 13 12 12 12 12 13 13 14 16 14 15 15 15 15 14 15 15 15 15 15 14 14 15 14 14 13 14 13 12 12 13 14 14 12 11 11 11 11 11 10 9 8 10 10 13 13 12 11 11 10 10 9 10
10 6 2 2 7 4 4 4 5 5 4 8 9 10 8 8 8 9 6 6 6 6 6 6 7 5 7 7 8 8 8 8 12 11 11 11 11 11 12 13 14 15 13 14 15 14 13 14 15 14 14 14 15 14 15 14 14 14 13 13 14 14 13 14 14 13 12 12 12 12 11 11 10 9 10 11 11 11 10 11 10 9 10 10 10 10
6 7 4 3 8 10 9 7 7 7 9 10 10 9 10 8 10 8 10 8 7 8 7 6 8 7 6 4 6 7 7 7 9 10 10 10 10 10 10 11 12 12 12 13 15 14 13 14 14 15 14 13 13 13 13 13 14 15 13 13 13 13 12 13 13 11 9 10 10 10 11 11 10 9 9 10 9 9 9 10 10 9 9 10 10 10
4 9 5 2 3 1 5 3 6 12 9 11 11 11 11 9 10 9 9 10 10 9 9 9 8 7 5 8 9 8 6 7 9 9 10 10 10 8 9 11 11 12 11 12 12 12 12 15 13 14 14 13 12 11 11 11 12 14 13 13 13 13 13 13 14 12 10 10 10 10 10 12 10 9 10 10 9 9 9 9 9 10 10 10 10 10
2 6 4 9 3 4 8 7 10 8 10 9 8 8 10 11 12 11 10 10 10 9 8 7 7 7 7 8 9 10 9 9 8 8 9 9 8 10 9 10 10 10 10 11 11 10 12 14 14 14 15 13 12 11 12 12 12 13 12 13 13 12 13 13 13 13 12 12 11 10 10 9 10 11 9 10 10 9 9 9 10 10 10 10 10 10
4 8 2 3 2 6 8 1 4 13 11 12 11 11 10 8 9 9 10 11 11 12 11 10 10 9 8 8 7 7 8 9 9 9 8 7 9 11 11 9 8 9 10 11 11 10 11 11 13 16 14 14 12 12 12 12 12 11 13 13 14 14 14 12 14 13 12 10 9 8 8 8 9 9 9 9 9 8 9 10 10 8 8 9 8 9
3 3 5 7 3 3 2 5 8 2 6 7 9 9 8 9 9 10 10 11 8 8 10 11 11 10 10 9 8 7 8 7 7 6 9 8 8 8 10 9 8 9 9 9 9 9 8 9 11 13 14 13 12 12 12 13 12 11 13 13 12 12 11 12 12 12 11 10 9 9 9 10 10 9 10 10 9 9 4 12 10 3 6 8 6 6
3 4 4 3 2 1 1 5 5 3 6 4 6 7 9 8 8 10 10 10 10 9 8 9 10 10 11 11 10 9 8 7 6 6 7 8 9 7 7 9 9 8 9 9 9 10 10 10 11 11 11 12 12 12 12 12 11 11 12 12 11 12 12 13 11 10 10 11 10 10 11 10 9 9 9 9 10 10 8 7 7 12 13 3 12 10
Wind_Direction
199 210 210 209 210 205 208 213 216 224 227 216 214 210 211 216 214 208 217 188 183 204 212 218 216 216 220 222 229 226 172 195 204 209 212 212 205 202 194 194 187 191 181 169 170 172 179 172 167 172 160 159 170 162 152 168 166 158 158 158 166 176 169 172 178 180 184 181 180 179 182 178 175 179 171 176 176 184 162 159 206 181 185 209 134 328
211 216 216 213 214 211 207 213 215 223 235 223 213 211 211 212 217 202 208 201 180 205 212 214 216 217 217 215 220 213 191 200 206 211 211 204 200 201 194 192 190 186 164 162 164 159 172 170 165 172 167 170 172 168 164 165 167 158 150 164 163 175 175 179 183 177 187 184 181 177 179 178 173 170 181 190 133 299 110 169 136 44 13 27 351 326
204 218 214 216 211 214 207 207 215 218 227 230 239 211 211 209 216 203 204 202 179 201 221 206 217 219 216 215 217 209 206 207 208 212 209 201 197 198 194 187 185 177 160 168 167 162 174 172 173 177 175 179 175 168 167 162 164 157 158 167 167 178 176 181 180 180 181 187 181 185 171 167 167 163 194 142 132 213 190 79 52 78 86 61 36 342
206 217 220 215 210 212 207 204 210 215 226 219 211 221 208 200 200 196 197 194 186 200 212 209 213 220 218 216 218 212 205 206 208 212 212 202 198 196 194 182 178 174 171 174 175 174 176 176 173 179 180 177 173 168 169 167 165 161 159 166 170 178 185 182 178 182 176 177 171 163 148 162 146 164 165 75 158 129 140 106 110 83 79 91 97 68
214 210 213 218 213 207 206 203 206 207 213 216 219 227 208 200 204 212 181 196 189 200 218 218 212 218 216 212 212 216 210 203 203 206 212 203 203 199 197 186 169 180 177 173 171 173 170 175 177 180 177 176 175 171 173 171 169 158 159 163 180 179 183 180 173 177 165 155 163 162 163 171 143 156 190 164 167 163 123 108 103 101 75 84 81 110
221 221 199 214 213 204 206 202 201 202 209 203 217 228 210 208 196 197 181 190 189 198 204 215 209 218 207 215 211 205 210 205 200 203 206 201 201 200 199 193 178 175 181 184 174 172 173 173 174 175 176 177 173 173 176 170 161 145 139 173 189 183 179 175 169 168 158 166 168 170 174 176 180 171 184 191 157 152 135 112 99 116 108 96 78 38
220 223 217 204 209 202 206 207 194 200 207 202 204 224 215 204 191 198 188 189 196 204 188 209 224 210 202 209 209 204 208 201 197 203 201 202 198 199 196 192 183 184 186 192 178 170 170 168 167 174 178 176 174 174 175 159 141 140 166 188 191 178 174 170 169 163 161 165 172 175 177 179 185 149 206 175 147 130 124 125 118 117 117 106 70 75
209 214 213 203 204 201 202 205 196 202 204 207 195 204 211 210 199 198 200 192 203 206 185 200 218 238 200 207 205 202 206 199 197 199 202 200 198 196 197 191 184 186 190 192 179 171 164 164 174 176 174 176 171 159 151 130 83 115 172 233 192 172 167 170 171 169 178 170 171 171 180 185 177 162 188 128 124 118 119 121 121 119 117 86 71 69
207 206 210 204 200 197 201 200 193 196 206 198 189 198 217 219 204 196 203 188 206 189 207 194 205 230 240 195 196 197 206 201 198 198 199 198 197 193 193 192 187 189 192 190 175 170 167 166 175 173 171 171 170 165 138 106 128 178 168 145 155 180 177 174 173 172 179 172 166 170 175 175 157 140 135 134 116 114 121 126 127 121 107 85 58 74
207 205 202 208 197 195 198 203 199 193 198 203 195 194 211 228 206 201 206 191 199 206 212 197 192 220 221 234 186 196 206 201 195 195 195 196 192 191 193 195 192 189 186 189 178 167 166 168 169 172 164 169 171 142 118 137 154 161 157 159 178 176 173 171 173 179 175 166 164 172 173 137 131 127 129 132 119 119 136 131 123 111 101 96 77 50
220 191 204 208 199 193 196 200 201 189 204 200 200 186 204 219 199 200 211 197 199 217 216 203 192 209 221 220 203 191 200 193 188 193 192 192 189 189 191 192 193 187 184 184 179 167 162 161 163 172 168 171 141 125 139 147 148 155 162 176 180 182 183 182 183 180 175 171 172 174 150 145 136 131 135 135 128 137 134 132 128 123 113 99 92 91
228 184 202 204 203 206 203 192 201 194 199 212 193 187 186 201 204 196 206 203 212 218 211 211 199 196 228 206 216 189 190 197 195 195 190 191 188 186 187 191 193 189 183 183 178 166 162 160 158 168 166 152 129 139 146 148 140 145 168 186 189 186 187 182 178 185 176 170 177 147 134 143 143 143 153 150 146 148 134 137 132 125 118 110 104 107
213 195 199 199 209 216 195 200 188 184 199 215 186 188 191 183 191 196 188 201 213 214 198 209 202 198 217 229 211 188 183 195 201 198 192 189 188 187 187 188 188 183 181 179 178 168 163 165 166 168 158 146 137 149 157 147 147 158 179 196 183 179 188 188 182 181 173 169 149 133 176 165 145 145 159 153 149 152 146 136 136 141 135 127 118 119
194 202 201 200 196 219 221 200 178 179 199 205 187 188 185 181 189 190 194 204 209 214 209 202 204 223 207 223 244 191 179 191 196 200 193 188 189 188 186 184 183 182 180 177 177 168 164 162 169 169 162 154 142 154 161 148 150 163 180 187 177 185 190 190 187 179 165 135 130 171 160 153 147 147 162 158 153 155 144 138 136 137 137 134 130 131
170 191 204 197 197 190 224 208 183 190 185 199 190 193 193 191 180 183 194 194 196 192 198 195 200 214 204 201 217 236 180 185 196 197 189 187 189 187 185 180 179 178 177 173 176 167 162 163 168 168 160 147 147 156 156 148 155 169 170 186 185 187 189 187 180 174 148 144 176 169 164 152 159 155 160 161 152 148 146 142 133 138 134 126 135 148
191 189 177 203 192 185 200 210 193 186 189 195 192 203 202 193 181 200 192 196 190 185 197 191 210 195 217 154 197 193 174 179 197 195 186 184 186 185 184 181 177 177 175 175 171 163 159 164 166 163 156 143 148 154 153 150 156 163 172 186 187 183 184 179 176 164 139 167 175 165 153 137 147 151 147 138 119 140 139 132 131 128 123 118 122 124
190 193 167 185 199 186 192 203 189 197 186 181 195 200 200 196 178 187 188 207 164 216 198 181 205 199 162 12 199 172 169 187 194 193 185 183 186 182 183 177 174 174 172 172 167 160 157 160 157 164 156 145 150 155 157 153 159 165 177 183 179 181 180 180 167 156 153 176 162 165 154 144 149 157 150 150 151 142 125 119 118 116 118 117 106 123
202 151 166 181 182 191 195 204 209 196 198 183 198 195 204 213 180 196 182 177 190 202 189 193 201 179 195 186 191 191 173 181 186 187 186 184 182 180 181 175 173 170 169 170 166 159 158 159 159 160 155 151 156 160 154 158 168 176 177 178 173 178 174 176 167 162 160 165 162 160 159 157 159 160 154 152 147 134 120 117 124 120 123 126 129 139
242 160 175 188 180 181 189 197 210 198 204 195 203 180 201 182 192 182 195 184 188 194 187 192 197 205 193 187 172 186 182 182 181 183 185 181 180 182 177 176 170 169 169 169 166 157 158 158 158 159 156 151 154 159 150 160 170 171 177 178 174 177 175 172 172 169 163 164 161 162 162 163 157 152 153 152 141 134 128 131 135 133 130 130 140 146
225 193 164 187 184 173 188 199 194 187 202 205 207 202 211 202 211 183 191 177 194 185 193 186 197 214 185 194 166 178 183 181 175 180 185 183 182 181 172 166 164 174 176 179 165 159 159 158 158 158 158 156 154 155 150 160 168 172 176 173 172 177 177 173 174 174 164 157 158 160 159 160 161 155 155 152 142 138 140 140 140 138 140 142 147 148
195 202 177 173 182 170 187 193 198 190 182 187 193 195 191 208 194 213 190 203 197 187 194 185 196 211 199 195 164 184 187 185 173 182 180 174 178 171 169 162 164 171 184 178 163 158 156 155 155 157 156 154 153 151 147 164 174 177 177 168 174 175 173 176 172 172 159 152 159 161 160 160 159 158 155 149 138 132 136 137 140 145 149 150 152 148
235 210 206 172 174 189 183 188 201 191 188 193 190 189 193 184 179 198 178 201 203 201 189 191 201 205 192 195 169 183 183 186 176 180 176 177 183 182 174 170 169 175 186 174 160 156 154 154 153 154 154 153 155 153 151 161 176 190 183 169 174 178 172 173 171 166 154 151 157 161 161 157 157 156 156 146 139 135 133 135 138 147 149 148 143 150
238 178 208 177 173 183 182 176 217 208 194 205 202 195 194 182 197 196 183 186 188 202 200 187 200 197 176 154 148 175 176 183 179 180 176 175 178 180 176 169 176 180 184 170 159 156 155 156 155 157 158 157 154 157 158 160 173 182 177 171 177 173 172 171 169 155 145 151 156 158 157 157 157 156 156 144 136 140 144 140 145 150 148 145 144 148
182 240 193 184 168 174 175 178 204 205 194 199 201 209 190 195 198 198 194 179 212 186 198 176 193 168 137 135 123 142 168 181 175 178 173 176 176 179 168 161 169 181 176 162 157 154 152 154 154 156 157 159 158 159 163 162 162 174 174 177 174 173 169 167 161 153 146 153 157 156 157 158 155 155 153 140 140 147 148 146 150 154 152 151 151 153
215 204 220 165 169 158 175 184 191 198 198 200 196 202 192 195 205 206 204 168 226 166 204 182 188 134 118 144 163 173 168 179 175 175 179 174 172 163 155 161 171 175 168 158 155 152 153 154 158 161 162 162 162 162 164 162 164 170 174 179 173 167 165 164 154 151 158 159 158 158 158 156 154 151 143 139 145 149 149 150 154 158 157 154 152 147
246 22 221 185 165 169 170 178 181 184 194 191 193 193 193 198 200 195 162 178 205 177 205 151 190 130 144 176 177 196 189 173 169 173 182 179 163 155 156 161 176 173 161 156 154 154 157 158 161 159 162 164 162 163 165 162 165 168 173 176 173 166 163 160 148 152 161 158 157 159 156 153 154 147 140 141 145 148 151 153 156 157 157 155 147 148
246 188 222 212 180 171 175 181 184 190 184 191 192 194 199 199 196 208 186 175 205 171 209 40 99 138 152 176 174 183 193 177 163 169 171 150 150 152 152 161 171 163 159 157 157 156 157 160 166 165 164 162 164 162 163 164 164 165 171 171 166 160 154 151 152 156 164 162 160 158 155 152 145 140 139 145 147 148 151 152 155 160 158 150 148 152
193 204 213 234 210 177 172 182 180 192 190 198 186 184 197 205 194 203 192 189 175 180 156 108 118 151 147 158 163 169 182 188 169 170 168 158 162 160 158 171 161 159 159 157 156 160 160 161 165 165 161 162 160 166 161 160 167 167 167 169 163 151 137 148 153 160 164 161 160 157 155 153 143 138 141 145 149 153 150 150 160 158 150 148 150 155
213 213 218 237 223 196 181 181 186 192 197 189 193 196 196 201 199 199 197 190 143 205 119 98 86 107 99 96 119 154 177 179 171 171 159 158 160 162 167 173 169 163 163 162 161 158 161 166 166 165 162 160 156 160 161 165 166 160 165 166 159 145 156 165 162 162 164 162 157 154 152 152 157 145 144 148 154 151 149 155 158 152 151 149 154 156
346 274 234 217 242 240 200 187 175 193 197 194 193 190 188 188 204 197 193 191 147 91 106 104 94 86 55 53 78 60 0 179 164 168 158 163 167 165 170 169 169 167 167 164 163 162 165 168 162 161 161 158 161 162 165 166 165 160 164 159 159 158 163 166 163 163 162 161 155 152 151 152 152 156 148 155 157 151 149 154 157 154 152 154 155 156
278 91 229 222 217 220 244 198 174 189 186 193 191 193 192 190 204 198 193 203 132 340 40 247 107 106 78 58 65 66 55 137 149 164 165 171 171 170 170 170 171 169 168 164 162 164 166 164 160 160 157 158 161 166 168 161 156 160 165 163 161 162 163 167 162 162 163 158 155 155 156 156 157 150 148 153 151 147 147 153 156 155 156 155 156 155
171 252 212 244 206 210 206 183 176 184 190 194 190 195 192 191 198 194 201 201 215 198 208 249 203 113 78 64 92 96 146 163 165 165 166 171 170 171 172 170 168 165 165 164 164 165 162 162 161 160 158 159 162 167 161 161 159 162 171 165 163 165 162 162 163 160 161 157 157 159 159 158 157 143 147 152 151 150 151 156 160 160 160 159 157 156
191 282 241 205 211 179 202 196 179 187 181 198 198 193 192 190 194 199 210 206 215 216 201 228 72 71 33 35 60 94 136 153 166 172 167 173 167 174 173 170 165 164 166 164 162 158 162 162 162 158 156 157 162 166 166 166 163 169 170 165 165 165 167 161 161 160 160 161 162 163 160 151 143 142 148 151 149 149 151 160 169 168 171 170 162 158
222 216 254 231 211 184 191 175 167 183 191 200 186 190 195 190 191 200 207 203 202 213 230 71 96 102 56 38 33 71 147 155 155 163 171 168 163 171 166 169 168 167 158 155 160 156 161 158 149 154 155 156 162 166 164 167 169 168 161 162 155 162 157 158 164 163 160 161 162 161 152 144 144 146 148 149 149 149 157 167 176 172 173 170 170 166
266 312 260 235 236 180 178 168 176 190 192 169 170 184 189 183 186 216 211 202 202 205 228 242 179 12 55 357 35 47 74 160 119 152 158 164 160 165 162 166 164 157 155 151 161 160 158 157 157 158 159 163 162 164 165 166 166 170 156 161 150 153 152 164 165 160 159 159 159 158 151 147 144 145 147 147 150 156 166 174 175 175 174 174 177 171
240 235 247 240 249 174 171 182 175 191 109 159 178 177 180 183 191 214 224 213 206 208 211 233 245 265 15 19 62 78 109 98 111 137 152 160 163 167 162 160 159 152 161 160 156 158 157 159 158 162 159 155 150 164 167 167 170 173 159 159 153 160 166 164 157 149 147 144 147 150 151 148 145 146 148 153 159 164 171 179 177 174 175 176 177 173
256 263 224 230 232 178 178 177 145 88 141 135 161 184 175 183 188 204 213 217 209 214 230 255 245 233 269 353 72 112 115 155 140 147 170 164 162 161 152 153 162 156 155 155 155 154 155 155 160 153 145 152 158 162 165 158 165 169 164 165 158 164 166 162 156 146 143 142 147 150 150 147 146 149 155 160 163 173 179 182 178 178 179 178 179 172
226 222 206 228 201 190 174 169 138 170 165 180 177 172 180 181 191 200 231 239 196 181 192 215 232 213 274 38 105 111 124 170 151 143 157 151 152 150 145 146 157 159 151 147 151 150 148 150 153 146 150 154 161 164 150 155 165 169 166 167 161 164 161 164 150 147 145 147 150 151 151 153 154 155 160 161 170 176 184 185 177 181 176 182 180 173
188 215 228 280 191 183 187 162 168 160 85 124 147 161 170 158 189 143 187 222 173 180 173 202 228 228 239 156 127 142 182 179 137 151 148 148 138 143 141 147 149 155 158 153 151 151 149 149 146 147 150 155 162 154 146 157 161 164 169 165 168 170 171 175 161 154 152 149 149 148 152 162 164 159 161 166 177 182 184 180 179 177 179 183 180 170
183 182 224 237 227 194 171 180 160 134 122 118 136 158 157 166 135 180 190 184 86 159 170 203 202 164 169 178 134 127 198 169 137 150 164 151 144 141 145 145 144 147 151 150 150 150 147 142 141 152 157 160 154 145 162 165 167 163 164 172 176 175 175 175 172 160 155 153 152 152 158 164 161 159 160 170 182 188 176 166 178 178 181 180 175 170
173 208 220 225 208 175 189 100 80 91 65 65 95 141 157 153 186 199 204 105 150 123 192 180 157 152 162 168 187 149 85 54 120 135 145 146 145 137 139 143 140 144 145 152 150 147 152 154 152 158 166 162 160 164 166 167 165 164 169 171 172 175 171 165 153 147 148 151 158 160 159 157 159 157 163 168 181 178 160 176 176 175 182 167 140 101
179 228 192 229 207 179 153 140 120 98 51 318 131 138 137 156 184 192 53 96 168 173 151 141 129 151 147 86 80 105 112 136 132 127 144 154 144 141 137 139 143 140 138 136 133 147 150 153 158 163 165 158 160 163 163 164 162 160 160 171 177 174 171 158 124 103 93 113 141 148 148 151 148 152 153 155 166 168 172 177 146 114 96 107 111 123
7 306 174 185 202 159 113 130 132 122 110 349 128 111 153 219 84 359 80 64 73 120 126 120 136 134 108 94 77 81 119 129 133 142 150 148 145 141 141 143 138 143 142 143 149 150 153 157 159 162 163 158 158 164 164 165 165 167 166 174 171 162 157 143 133 121 116 118 132 139 147 152 151 152 155 159 171 165 171 150 144 147 144 137 149 157
7 305 50 53 353 174 144 129 90 52 75 316 227 125 92 68 121 143 86 98 92 107 115 129 129 132 122 108 84 86 110 130 138 145 137 137 139 139 140 141 139 138 145 153 152 151 160 158 161 160 157 154 157 162 165 163 166 164 168 168 163 154 147 145 146 146 152 160 159 155 148 148 152 151 145 142 142 163 164 167 163 160 166 169 171 174
11 34 27 9 13 8 60 86 97 112 49 66 80 91 83 74 69 65 73 78 81 82 105 118 112 102 123 96 99 99 97 112 118 122 130 138 140 140 142 145 145 140 144 150 151 154 160 155 153 153 153 157 162 160 167 169 167 165 173 168 165 163 161 161 153 149 152 162 161 155 153 146 148 153 155 156 157 159 160 160 160 162 167 173 178 177
7 5 338 322 103 84 88 119 135 95 76 87 87 87 91 84 95 101 96 89 74 82 85 85 97 106 95 120 106 93 99 109 126 125 124 136 140 138 141 143 141 142 146 154 152 164 162 151 153 152 152 158 164 165 166 171 172 170 175 173 176 171 158 163 152 142 143 149 149 149 144 142 148 154 155 154 160 160 158 157 164 170 170 175 184 184
328 332 24 112 314 243 91 19 74 110 112 89 89 90 84 76 83 91 83 76 78 79 79 81 92 98 101 98 112 122 130 120 116 128 137 138 138 134 144 149 145 147 149 156 153 165 154 149 155 160 156 161 164 167 168 164 174 174 173 166 167 169 163 161 155 148 144 139 142 143 146 146 152 155 159 160 160 162 161 162 172 178 177 180 186 189
60 24 40 353 10 110 88 77 99 93 80 73 80 83 83 83 77 73 75 79 80 74 79 89 102 93 83 84 103 127 136 124 116 120 131 144 146 149 151 146 146 149 152 152 151 173 155 155 156 159 159 162 164 167 169 168 169 177 176 169 168 163 160 156 156 153 153 148 150 150 151 151 144 153 161 166 167 169 171 175 183 183 185 187 187 188
311 299 56 325 23 58 102 173 75 86 80 77 72 63 59 58 76 82 83 86 81 83 81 71 59 67 66 75 78 88 105 117 133 134 120 128 146 144 140 149 151 151 151 153 158 180 161 162 163 159 157 159 165 166 171 167 152 144 164 173 175 173 165 157 155 155 145 138 136 137 142 144 150 162 162 164 173 177 182 187 189 183 185 194 192 191
291 5 100 163 28 65 350 11 352 102 92 71 46 50 69 86 70 74 85 81 74 68 71 74 74 66 58 46 64 75 76 79 87 105 124 126 118 127 133 140 143 150 150 147 159 175 148 162 166 162 156 157 165 164 166 165 168 171 175 170 162 156 151 143 147 149 145 142 144 146 149 154 162 165 163 166 168 179 114 37 52 52 181 184 197 144
65 356 1 35 55 129 94 348 70 82 67 38 61 69 57 53 83 82 66 65 79 80 84 84 80 72 63 58 52 65 70 72 66 73 89 96 101 109 128 147 149 157 153 150 165 163 162 178 177 167 164 156 157 167 167 163 166 171 172 171 162 151 145 148 150 154 155 155 161 158 160 157 155 161 166 171 173 180 155 151 79 46 29 73 129 100